User: anonymous   Login
Location: Unspecified
(0.0000°N, 0.0000°E)
Time: 06:18:00
(UTC+00:00)
Language:

Hubble Space Telescope - Orbit

View from above orbital plane
View from above orbital plane
View from above satellite
View from above satellite

Ground track
Ground track

The orbit data is extracted from the following two-line orbital elements,

1 20580U 90037B   17234.80111111  .00000558  00000-0  23422-4 0  9990
2 20580  28.4696 287.3352 0002742 164.5910 149.6385 15.08820503300352
Epoch (UTC): 22 August 2017 19:13:36
Eccentricity: 0.0002742
inclination: 28.4696°
perigee height: 538 km
apogee height: 542 km
right ascension of ascending node: 287.3352°
argument of perigee: 164.5910°
revolutions per day: 15.08820503
mean anomaly at epoch: 149.6385°
orbit number at epoch: 30035

The dashed part of the orbit path shows where the satellite is in the earth's shadow,  

DLR